Greenville, AL

11:26 PM CDT on September 19, 2017 (GMT -0500)
Greenville Municipal

Weather History for KPRN - March, 2013

Change the Weather History Date:

Wednesday, March 20, 2013

  Actual Average Record
Temperature  
Mean Temperature 54 °F -  
Max Temperature 62 °F 70 °F 87 °F (2011)
Min Temperature 45 °F 45 °F 29 °F (1965)
Degree Days  
Heating Degree Days 12    
Growing Degree Days 4 (Base 50)    
Moisture  
Dew Point 26 °F    
Average Humidity 36    
Maximum Humidity 63    
Minimum Humidity 22    
Precipitation  
Precipitation 0.00 in - - ()
Sea Level Pressure  
Sea Level Pressure 30.04 in    
Wind  
Wind Speed 7 mph (North)    
Max Wind Speed 14 mph    
Max Gust Speed 16 mph    
Visibility 10 miles    
Events      
Averages and records for this station are not official NWS values.
T = Trace of Precipitation, MM = Missing Value Source: NWS Daily Summary

Daily Weather History Graph

Daily Weather History Graph

Search for Another Location

Airport or City:

Trip Planner

Search our weather history database for the weather conditions in past years. The results will help you decide how hot, cold, wet, or windy it might be!

Date:

Astronomy

Mar. 20, 2013 Rise Set
Actual Time 6:49 AM CDT 6:58 PM CDT
Civil Twilight 6:25 AM CDT 7:22 PM CDT
Nautical Twilight 5:57 AM CDT 7:50 PM CDT
Astronomical Twilight 5:28 AM CDT 8:19 PM CDT
Moon 12:51 PM CDT 2:09 AM CDT
Length of Visible Light 12h 56m
Length of Day
12h 08m
First Quarter, 59% of the Moon is Illuminated
Mar 20
First Quarter
Mar 27
Full
Apr 2
Last Quarter
Apr 10
New
Apr 18
First Quarter

Hourly Weather History & Observations

Time (CDT) Temp. Windchill Dew Point Humidity Pressure Visibility Wind Dir Wind Speed Gust Speed Precip Events Conditions
12:56 AM 54.0 °F - 32.0 °F 43% 30.03 in 10.0 mi NNE 4.6 mph - N/A   Clear
1:56 AM 52.0 °F - 33.1 °F 49% 30.02 in 10.0 mi NNE 4.6 mph - N/A   Clear
2:56 AM 52.0 °F - 33.1 °F 49% 30.02 in 10.0 mi NNE 10.4 mph - N/A   Clear
3:56 AM 51.1 °F - 32.0 °F 48% 30.02 in 10.0 mi NNE 8.1 mph - N/A   Clear
4:56 AM 50.0 °F - 30.9 °F 48% 30.04 in 10.0 mi NNE 8.1 mph - N/A   Clear
5:56 AM 48.9 °F - 28.9 °F 46% 30.07 in 10.0 mi NNE 8.1 mph - N/A   Clear
6:56 AM 48.9 °F - 27.0 °F 43% 30.09 in 10.0 mi East 5.8 mph - N/A   Clear
7:56 AM 48.9 °F - 28.0 °F 44% 30.14 in 10.0 mi NNE 3.5 mph - N/A   Clear
8:56 AM 52.0 °F - 23.0 °F 32% 30.11 in 10.0 mi NE 8.1 mph - N/A   Mostly Cloudy
9:56 AM 55.9 °F - 23.0 °F 28% 30.11 in 10.0 mi NE 10.4 mph - N/A   Scattered Clouds
10:56 AM 57.0 °F - 19.9 °F 24% 30.11 in 10.0 mi NE 13.8 mph - N/A   Clear
11:56 AM 57.9 °F - 23.0 °F 26% 30.10 in 10.0 mi North 10.4 mph - N/A   Scattered Clouds
12:56 PM 59.0 °F - 23.0 °F 25% 30.09 in 10.0 mi NNE 10.4 mph - N/A   Clear
1:56 PM 59.0 °F - 21.9 °F 24% 30.06 in 10.0 mi North 10.4 mph - N/A   Clear
2:56 PM 60.1 °F - 21.0 °F 22% 30.03 in 10.0 mi North 9.2 mph - N/A   Clear
3:56 PM 62.1 °F - 24.1 °F 23% 30.01 in 10.0 mi NW 4.6 mph - N/A   Clear
4:56 PM 62.1 °F - 24.1 °F 23% 29.99 in 10.0 mi WNW 9.2 mph - N/A   Clear
5:56 PM 61.0 °F - 23.0 °F 23% 29.99 in 10.0 mi NNW 10.4 mph 16.1 mph N/A   Clear
6:56 PM 57.9 °F - 23.0 °F 26% 29.99 in 10.0 mi WNW 6.9 mph - N/A   Clear
7:56 PM 53.1 °F - 27.0 °F 37% 29.98 in 10.0 mi Calm Calm - N/A   Clear
8:56 PM 53.1 °F - 26.1 °F 35% 29.99 in 10.0 mi WNW 5.8 mph - N/A   Clear
9:56 PM 45.0 °F 42.6 °F 33.1 °F 63% 30.00 in 10.0 mi WNW 4.6 mph - N/A   Clear
10:56 PM 52.0 °F - 25.0 °F 35% 30.01 in 10.0 mi NW 6.9 mph - N/A   Clear
11:56 PM 48.9 °F - 27.0 °F 43% 30.02 in 10.0 mi NW 8.1 mph - N/A   Clear